This is the latest recevied weather packets stored in our database for station/object IN3XSV. If no packets are shown the sender has not sent any weather packets the latest 10 day(s).
| Time | Temp. | Humidity | Pressure | Rain* | Wind** | Luminosity | Snow |
|---|---|---|---|---|---|---|---|
| 1777810426 | 23.33° C | 37% | 1010.3 hPa | 0 mm | - | - | - |
| 1777810126 | 23.33° C | 39% | 1010.2 hPa | 0 mm | - | - | - |
| 1777809826 | 23.33° C | 39% | 1010.1 hPa | 0 mm | - | - | - |
| 1777809699 | 22.78° C | 41% | 1010.1 hPa | 0 mm | - | - | - |
| 1777809526 | 22.78° C | 41% | 1010.1 hPa | 0 mm | - | - | - |
| 1777809226 | 22.22° C | 41% | 1010.2 hPa | 0 mm | - | - | - |
| 1777808926 | 22.22° C | 40% | 1010.3 hPa | 0 mm | - | - | - |
| 1777808626 | 22.78° C | 43% | 1010.3 hPa | 0 mm | - | - | - |
| 1777808326 | 22.22° C | 42% | 1010.4 hPa | 0 mm | - | - | - |
| 1777808026 | 22.22° C | 42% | 1010.5 hPa | 0 mm | - | - | - |
| 1777807726 | 22.78° C | 41% | 1010.5 hPa | 0 mm | - | - | - |
| 1777807426 | 22.22° C | 44% | 1010.4 hPa | 0 mm | - | - | - |
| 1777807126 | 22.22° C | 43% | 1010.5 hPa | 0 mm | - | - | - |
| 1777807027 | 22.22° C | 42% | 1010.4 hPa | 0 mm | - | - | - |
| 1777806826 | 22.22° C | 42% | 1010.4 hPa | 0 mm | - | - | - |
| 1777806526 | 22.22° C | 44% | 1010.6 hPa | 0 mm | - | - | - |
| 1777806226 | 21.67° C | 44% | 1010.7 hPa | 0 mm | - | - | - |
| 1777805926 | 21.11° C | 44% | 1010.7 hPa | 0 mm | - | - | - |
| 1777805626 | 20.56° C | 44% | 1010.8 hPa | 0 mm | - | - | - |
| 1777805326 | 20.56° C | 45% | 1011 hPa | 0 mm | - | - | - |
| 1777805026 | 20.56° C | 47% | 1011 hPa | 0 mm | - | - | - |
| 1777804726 | 20° C | 48% | 1011.1 hPa | 0 mm | - | - | - |
| 1777804426 | 20° C | 47% | 1011.3 hPa | 0 mm | - | - | - |
| 1777804126 | 20° C | 47% | 1011.1 hPa | 0 mm | - | - | - |
| 1777803826 | 20° C | 48% | 1011.2 hPa | 0 mm | - | - | - |
* Rain latest hour (hover to see other rain measurements)
** Current wind speed in m/s (hover to see current wind gust speed)